OpenBCM V1.13 (Linux)

Packet Radio Mailbox

DB0FHN

[JN59NK Nuernberg]

 Login: GUEST





  
F1EBE  > KEPLER   25.02.03 11:31l 105 Lines 5487 Bytes #999 (0) @ EU
BID : 22828_F8KOH
Read: DB0FHN GUEST
Subj: 2L  Satell Amat 055.day
Path: DB0FHN<DB0RGB<OK0PPL<RZ6HXA<LX0PAC<F6KIF<F1HCI<F6KDS<F5KCK<F8KAE<
      F8KOH
Sent: 030225/0828Z @:F8KOH.FNOR.FRA.EU #:22828 [Vernon] FBB7.00i $:22828_F8KOH
From: F1EBE@F8KOH.FNOR.FRA.EU
To  : KEPLER@EU


AO-7                    
1 07530U 74089B   03054.71950756 -.00000029  00000-0  10000-3 0  1678
2 07530 101.7603 102.4591 0012183  70.1984 290.0401 12.53564479293838
AO-10                   
1 14129U 83058B   03053.29347507 -.00000135  00000-0  10000-3 0  9207
2 14129  25.9661 163.6642 6025305 329.8586   6.1874  2.05867335120141
UO-11                   
1 14781U 84021B   03055.56883824  .00001152  00000-0  16688-3 0   793
2 14781  98.1189  29.5390 0009037 184.4520 175.6608 14.78015512 17128
UO-14                   
1 20437U 90005B   03054.67206479  .00000128  00000-0  63992-4 0  1719
2 20437  98.2728  98.0421 0010317 182.6284 177.4845 14.31240126683222
AO-16                   
1 20439U 90005D   03054.68613196  .00000136  00000-0  66689-4 0  8587
2 20439  98.3160 109.7684 0010529 189.2862 170.8132 14.31474283683269
DO-17                   
1 20440U 90005E   03054.74393850  .00000181  00000-0  83361-4 0  7291
2 20440  98.3370 113.7298 0010621 187.8344 172.2667 14.31752820683346
WO-18                   
1 20441U 90005F   03055.22579147  .00000141  00000-0  68560-4 0   193
2 20441  98.3326 113.3990 0011319 187.4960 172.6053 14.31556209683399
LO-19                   
1 20442U 90005G   03055.20356890  .00000160  00000-0  75431-4 0  9702
2 20442  98.3445 116.4112 0011525 187.2160 172.8854 14.31719555683443
FO-20                   
1 20480U 90013C   03054.92478355  .00000007  00000-0  90845-4 0  4815
2 20480  99.0473  16.6602 0540763 351.7567   7.4912 12.83330463611204
RS-12/13                
1 21089U 91007A   03054.85505049  .00000048  00000-0  34911-4 0  5131
2 21089  82.9229 177.4570 0027639 272.5829  87.2163 13.74404672604518
UO-22                   
1 21575U 91050B   03055.20891535  .00000285  00000-0  10531-3 0  7335
2 21575  98.1412  47.0458 0008372 112.6376 247.5698 14.39159013609092
KO-23                   
1 22077U 92052B   03054.93194366 -.00000037  00000-0  10000-3 0  2414
2 22077  66.0870 114.4980 0015627 272.2347  87.6883 12.86408623494997
AO-27                   
1 22825U 93061C   03054.93416882  .00000127  00000-0  66354-4 0  4949
2 22825  98.2744  84.3572 0007469 241.2873 118.7559 14.28945438490644
IO-26                   
1 22826U 93061D   03055.52369706  .00000155  00000-0  77351-4 0  3161
2 22826  98.2747  86.0359 0007997 242.2411 117.7963 14.29168916490776
KO-25                   
1 22828U 93061F   03054.59267322  .00000134  00000-0  68464-4 0  4332
2 22828  98.2711  85.4152 0009133 220.3311 139.7189 14.29510325458844
POSAT                   
1 22829U 93061G   03055.16080259  .00000207  00000-0  96644-4 0  4588
2 22829  98.2718  86.5628 0008978 218.5269 141.5269 14.29771786490856
RS-15                   
1 23439U 94085A   03054.96988991 -.00000042  00000-0  16348-4 0  6864
2 23439  64.8161  32.7456 0146728 114.1360 247.4982 11.27547605336208
FO-29                   
1 24278U 96046B   03054.94052720 -.00000003  00000-0  33666-4 0  5672
2 24278  98.5378 205.4321 0350254 202.4746 156.0719 13.52872831322035
TO-31                   
1 25396U 98043C   03054.94804202 -.00000043  00000-0  00000-0 0  8571
2 25396  98.6263 131.9531 0004395 119.8694 240.2926 14.23511878240295
GO-32                   
1 25397U 98043D   03054.97194709  .00000070  00000-0  50125-4 0  1398
2 25397  98.6213 130.8475 0002245 120.8401 239.2997 14.22961392240268
SO-33                   
1 25509U 98061B   03054.61703593  .00000756  00000-0  14065-3 0  7873
2 25509  31.4315 124.6569 0357578 346.8602  12.2934 14.27442984226036
PO-34                   
1 25520U 98064B   03055.55834812  .00001970  00000-0  95733-4 0  6412
2 25520  28.4634 183.9707 0005441  55.5189 304.5864 15.13912763238499
ISS             
1 25544U 98067A   03055.48490583  .00016034  00000-0  20977-3 0  7231
2 25544  51.6343 226.2914 0011914 240.7333 215.6510 15.58715118243425
UO-36                   
1 25693U 99021A   03055.37545205  .00000520  00000-0  94201-4 0  7322
2 25693  64.5606 353.0121 0020938 315.8580  44.0856 14.76397222207112
OO-38                   
1 26063U 00004C   03054.71311252  .00000139  00000-0  68391-4 0  7278
2 26063 100.2124 110.2269 0036760 272.6232  87.0738 14.35483943161124
SO-41                   
1 26545U 00057A   03054.75231263  .00000756  00000-0  11929-3 0  4195
2 26545  64.5596  15.9904 0051890 237.8548 121.7527 14.78995830129996
MO-46                   
1 26548U 00057D   03054.36174070  .00001061  00000-0  15202-3 0  4195
2 26548  64.5590  10.0268 0045033 237.4467 122.2266 14.81288790130071
SO-42                   
1 26549U 00057E   03054.92745083  .00000824  00000-0  13095-3 0  7003
2 26549  64.5533  19.5945 0056145 238.0446 121.5138 14.77933816129939
AO-40                   
1 26609U 00072B   03050.21683058 -.00000170  00000-0  10000-3 0  3125
2 26609   8.1020  63.9362 7942557 145.4197 310.7583  1.25596576 10593
PCsat                   
1 26931U 01043C   03054.91398261  .00000115  00000-0  78049-4 0  4163
2 26931  67.0473 241.8532 0005075 268.7895  91.2623 14.29118111 73111
NO-45                   
1 26932U 01043D   03055.52114159  .00000035  00000-0  46139-4 0  4047
2 26932  67.0541 239.9934 0004647 243.6338 116.4285 14.29296223 73227
AO-49                   
1 27605U 02058A   03054.81351492  .00000702  00000-0  13357-3 0   734
2 27605  64.5540 181.3131 0035894 111.8594 248.6327 14.71382808  9588
SO-50                   
1 27607U 02058C   03055.49357695  .00000844  00000-0  16117-3 0   602
2 27607  64.5515 179.7281 0037144 107.5696 252.9451 14.69918593  9673



Read previous mail | Read next mail


 22.06.2026 13:28:19lGo back Go up